AKJ1637 VABB-VISR

Flight info

Callsign AKJ1637
Flight time 2h 15m
Altitude 37000
Route ANOLI2A ISRIS Q1 OPIGI/N0452F380 DCT BUTOP A589 ASARI/N0448F370 W24 PKT/N0450F380 W24 MESAR
Aircraft B38M/M-SDE1FGHILORVWXY/HB1

Departure

Time 2026-04-15 07:56
Airport Chhatrapati Shivaji Maharaj International Airport (VABB)

Arrival

Time 2026-04-15 10:11
Airport Sheikh ul Alam International Airport (VISR)
Time Latitude Longitude Altitude Speed Heading
2026-04-15 07:14 19.09158 72.85525 35 ft 0 kts
2026-04-15 07:39 19.09151 72.85525 35 ft 4 kts
2026-04-15 07:39 19.09124 72.85522 35 ft 4 kts 15°
2026-04-15 07:40 19.09108 72.85515 35 ft 4 kts 39°
2026-04-15 07:40 19.09099 72.85499 35 ft 1 kts 90°
2026-04-15 07:40 19.09099 72.85498 35 ft 1 kts 90°
2026-04-15 07:46 19.09099 72.85500 35 ft 1 kts 90°
2026-04-15 07:46 19.09099 72.85539 35 ft 8 kts 90°
2026-04-15 07:47 19.09079 72.85597 35 ft 10 kts 148°
2026-04-15 07:47 19.09030 72.85647 35 ft 11 kts 103°
2026-04-15 07:47 19.09029 72.85737 35 ft 13 kts 89°
2026-04-15 07:47 19.09030 72.85841 34 ft 15 kts 91°
2026-04-15 07:48 19.09031 72.85959 34 ft 17 kts 90°
2026-04-15 07:48 19.09032 72.86092 34 ft 19 kts 89°
2026-04-15 07:48 19.09035 72.86236 34 ft 18 kts 88°
2026-04-15 07:48 19.09036 72.86371 34 ft 17 kts 89°
2026-04-15 07:49 19.09036 72.86410 34 ft 0 kts 90°
2026-04-15 07:49 19.09036 72.86419 33 ft 5 kts 90°
2026-04-15 07:50 19.09038 72.86503 33 ft 18 kts 88°
2026-04-15 07:50 19.09042 72.86661 34 ft 23 kts 89°
2026-04-15 07:50 19.09044 72.86832 35 ft 24 kts 90°
2026-04-15 07:50 19.09045 72.87012 36 ft 25 kts 90°
2026-04-15 07:51 19.09050 72.87203 36 ft 27 kts 88°
2026-04-15 07:51 19.09055 72.87402 35 ft 28 kts 90°
2026-04-15 07:51 19.09055 72.87589 35 ft 22 kts 88°
2026-04-15 07:51 19.09058 72.87758 35 ft 24 kts 89°
2026-04-15 07:52 19.09061 72.87938 35 ft 24 kts 89°
2026-04-15 07:52 19.09041 72.88045 35 ft 8 kts 152°
2026-04-15 07:52 19.09011 72.88049 34 ft 0 kts 178°
2026-04-15 07:53 19.09009 72.88050 34 ft 2 kts 178°
2026-04-15 07:53 19.08966 72.88051 33 ft 12 kts 178°
2026-04-15 07:54 19.08892 72.88033 32 ft 9 kts 245°
2026-04-15 07:54 19.08889 72.88015 32 ft 1 kts 265°
2026-04-15 07:54 19.08887 72.87983 32 ft 15 kts 266°
2026-04-15 07:54 19.08884 72.87601 32 ft 89 kts 269°
2026-04-15 07:55 19.08871 72.86722 34 ft 148 kts 269°
2026-04-15 07:55 19.08856 72.85503 250 ft 179 kts 270°
2026-04-15 07:55 19.08789 72.82429 607 ft 253 kts 269°
2026-04-15 07:56 19.08700 72.80555 1531 ft 230 kts 267°
2026-04-15 07:56 19.08564 72.78848 2371 ft 244 kts 266°
2026-04-15 07:56 19.08455 72.77083 3340 ft 229 kts 271°
2026-04-15 07:56 19.08511 72.75353 4090 ft 240 kts 273°
2026-04-15 07:57 19.08903 72.73648 4947 ft 242 kts 297°
2026-04-15 07:57 19.10005 72.72260 5642 ft 257 kts 321°
2026-04-15 07:57 19.11680 72.71443 6160 ft 275 kts 346°
2026-04-15 07:57 19.13619 72.71477 6756 ft 286 kts 13°
2026-04-15 07:58 19.15381 72.72439 7406 ft 294 kts 39°
2026-04-15 07:58 19.16935 72.73865 7989 ft 298 kts 32°
2026-04-15 07:58 19.18838 72.74628 7914 ft 291 kts
2026-04-15 07:58 19.20833 72.74497 7866 ft 289 kts 353°
2026-04-15 07:59 19.22847 72.74357 7854 ft 290 kts 354°
2026-04-15 07:59 19.24867 72.74233 8184 ft 289 kts 354°
2026-04-15 07:59 19.26877 72.74116 8930 ft 293 kts 355°
2026-04-15 07:59 19.28934 72.73999 9567 ft 298 kts 355°
2026-04-15 08:00 19.31027 72.74039 10131 ft 304 kts
2026-04-15 08:00 19.33176 72.74381 10478 ft 321 kts
2026-04-15 08:00 19.35425 72.74738 10908 ft 331 kts
2026-04-15 08:00 19.37709 72.75094 11659 ft 331 kts
2026-04-15 08:01 19.40000 72.75448 12386 ft 334 kts
2026-04-15 08:01 19.42311 72.75803 13150 ft 337 kts
2026-04-15 08:01 19.44641 72.76162 13889 ft 340 kts
2026-04-15 08:01 19.46956 72.76518 14554 ft 343 kts
2026-04-15 08:02 19.49331 72.76883 15230 ft 346 kts
2026-04-15 08:02 19.51725 72.77252 15890 ft 349 kts
2026-04-15 08:02 19.54136 72.77622 16468 ft 353 kts
2026-04-15 08:02 19.56576 72.77998 17131 ft 355 kts
2026-04-15 08:03 19.59032 72.78376 17755 ft 359 kts
2026-04-15 08:03 19.61513 72.78758 18337 ft 362 kts
2026-04-15 08:03 19.64012 72.79142 18844 ft 365 kts
2026-04-15 08:03 19.66542 72.79532 19332 ft 369 kts
2026-04-15 08:04 19.69101 72.79926 19818 ft 373 kts
2026-04-15 08:04 19.71685 72.80324 20297 ft 377 kts
2026-04-15 08:04 19.74295 72.80727 20767 ft 381 kts
2026-04-15 08:04 19.76940 72.81135 21244 ft 385 kts
2026-04-15 08:05 19.79601 72.81546 21712 ft 389 kts
2026-04-15 08:05 19.82290 72.81961 22171 ft 393 kts
2026-04-15 08:05 19.84978 72.82375 22627 ft 397 kts
2026-04-15 08:05 19.87720 72.82799 23075 ft 401 kts
2026-04-15 08:06 19.90490 72.83227 23522 ft 404 kts
2026-04-15 08:06 19.93288 72.83659 23879 ft 408 kts
2026-04-15 08:06 19.96100 72.84094 24303 ft 410 kts
2026-04-15 08:06 19.98932 72.84532 24698 ft 412 kts
2026-04-15 08:07 20.01779 72.84973 25110 ft 415 kts
2026-04-15 08:07 20.04641 72.85416 25512 ft 417 kts
2026-04-15 08:07 20.07535 72.85861 25903 ft 420 kts
2026-04-15 08:07 20.10439 72.86230 26281 ft 422 kts
2026-04-15 08:08 20.13365 72.86599 26650 ft 425 kts
2026-04-15 08:08 20.16305 72.86974 27030 ft 427 kts
2026-04-15 08:08 20.19271 72.87354 27397 ft 430 kts
2026-04-15 08:08 20.22247 72.87736 27751 ft 432 kts
2026-04-15 08:09 20.25201 72.88116 28114 ft 435 kts
2026-04-15 08:09 20.28210 72.88502 28474 ft 437 kts
2026-04-15 08:09 20.31240 72.88892 28824 ft 440 kts
2026-04-15 08:09 20.34284 72.89284 29176 ft 442 kts
2026-04-15 08:10 20.37346 72.89677 29512 ft 445 kts
2026-04-15 08:10 20.40433 72.90075 29848 ft 447 kts
2026-04-15 08:10 20.43535 72.90474 30149 ft 450 kts
2026-04-15 08:10 20.46642 72.90874 30438 ft 451 kts
2026-04-15 08:11 20.49770 72.91277 30724 ft 453 kts
2026-04-15 08:11 20.52908 72.91682 31002 ft 456 kts
2026-04-15 08:11 20.56064 72.92089 31292 ft 458 kts
2026-04-15 08:11 20.59227 72.92497 31571 ft 460 kts
2026-04-15 08:12 20.62414 72.92909 31853 ft 462 kts
2026-04-15 08:12 20.65609 72.93321 32127 ft 464 kts
2026-04-15 08:12 20.68824 72.93737 32396 ft 466 kts
2026-04-15 08:12 20.72059 72.94155 32670 ft 468 kts
2026-04-15 08:13 20.75299 72.94558 32928 ft 469 kts
2026-04-15 08:13 20.78548 72.94659 33163 ft 469 kts 357°
2026-04-15 08:13 20.81784 72.94751 33413 ft 471 kts 358°
2026-04-15 08:13 20.85062 72.94867 33754 ft 471 kts 358°
2026-04-15 08:14 20.88344 72.94994 34078 ft 471 kts 358°
2026-04-15 08:14 20.91610 72.95124 34399 ft 470 kts 358°
2026-04-15 08:14 20.94880 72.95256 34691 ft 469 kts 358°
2026-04-15 08:14 20.98140 72.95387 34986 ft 469 kts 358°
2026-04-15 08:15 21.01396 72.95518 35277 ft 468 kts 358°
2026-04-15 08:15 21.04650 72.95649 35564 ft 467 kts 358°
2026-04-15 08:15 21.07898 72.95780 35840 ft 467 kts 358°
2026-04-15 08:15 21.11141 72.95911 36099 ft 466 kts 358°
2026-04-15 08:16 21.14378 72.96042 36363 ft 465 kts 358°
2026-04-15 08:16 21.17611 72.96257 36616 ft 468 kts
2026-04-15 08:16 21.20763 72.97194 36860 ft 473 kts 16°
2026-04-15 08:17 21.26989 72.99515 36815 ft 472 kts 15°
2026-04-15 08:17 21.33193 73.01889 36818 ft 473 kts 15°
2026-04-15 08:18 21.39351 73.04264 36815 ft 473 kts 15°
2026-04-15 08:18 21.45554 73.06659 36815 ft 473 kts 15°
2026-04-15 08:19 21.51748 73.09054 36815 ft 473 kts 15°
2026-04-15 08:19 21.57946 73.11452 36811 ft 474 kts 15°
2026-04-15 08:20 21.64145 73.13853 36809 ft 474 kts 15°
2026-04-15 08:20 21.70322 73.16247 36810 ft 474 kts 15°
2026-04-15 08:21 21.76537 73.18658 36809 ft 474 kts 15°
2026-04-15 08:21 21.82740 73.21067 36807 ft 474 kts 15°
2026-04-15 08:22 21.88946 73.23480 36802 ft 474 kts 15°
2026-04-15 08:22 21.95162 73.25897 36799 ft 474 kts 15°
2026-04-15 08:23 22.01369 73.28315 36797 ft 475 kts 15°
2026-04-15 08:23 22.07594 73.30741 36784 ft 475 kts 15°
2026-04-15 08:24 22.13809 73.33166 36784 ft 475 kts 15°
2026-04-15 08:24 22.19994 73.35582 36778 ft 475 kts 15°
2026-04-15 08:25 22.26219 73.38015 36781 ft 475 kts 15°
2026-04-15 08:25 22.32454 73.40454 36778 ft 475 kts 15°
2026-04-15 08:26 22.38678 73.42892 36781 ft 476 kts 15°
2026-04-15 08:26 22.44868 73.45318 36788 ft 476 kts 15°
2026-04-15 08:27 22.51097 73.47762 36789 ft 476 kts 15°
2026-04-15 08:27 22.57338 73.50213 36794 ft 476 kts 15°
2026-04-15 08:28 22.62513 73.52247 36799 ft 476 kts 15°
2026-04-15 08:28 22.69755 73.55097 36801 ft 476 kts 15°
2026-04-15 08:29 22.74968 73.57150 36804 ft 476 kts 15°
2026-04-15 08:29 22.82210 73.60006 36803 ft 476 kts 15°
2026-04-15 08:30 22.87385 73.62048 36805 ft 476 kts 15°
2026-04-15 08:30 22.93615 73.64508 36805 ft 476 kts 15°
2026-04-15 08:31 22.99837 73.66968 36809 ft 476 kts 15°
2026-04-15 08:31 23.06060 73.69430 36810 ft 476 kts 15°
2026-04-15 08:32 23.12278 73.71893 36810 ft 476 kts 14°
2026-04-15 08:32 23.18498 73.74359 36798 ft 476 kts 14°
2026-04-15 08:33 23.24688 73.76816 36812 ft 475 kts 14°
2026-04-15 08:33 23.30913 73.79289 36821 ft 476 kts 14°
2026-04-15 08:34 23.37128 73.81761 36818 ft 475 kts 14°
2026-04-15 08:34 23.43347 73.84237 36813 ft 476 kts 14°
2026-04-15 08:35 23.49567 73.86716 36816 ft 476 kts 14°
2026-04-15 08:35 23.55784 73.89195 36821 ft 476 kts 14°
2026-04-15 08:36 23.62004 73.91679 36829 ft 476 kts 14°
2026-04-15 08:36 23.68178 73.94146 36830 ft 475 kts 14°
2026-04-15 08:37 23.74387 73.96630 36826 ft 475 kts 14°
2026-04-15 08:37 23.80598 73.99118 36822 ft 475 kts 14°
2026-04-15 08:38 23.86815 74.01611 36824 ft 475 kts 14°
2026-04-15 08:38 23.93031 74.04105 36827 ft 475 kts 14°
2026-04-15 08:39 23.99251 74.06603 36833 ft 475 kts 14°
2026-04-15 08:39 24.05463 74.09097 36832 ft 476 kts 14°
2026-04-15 08:40 24.11683 74.11593 36837 ft 476 kts 14°
2026-04-15 08:40 24.17899 74.14091 36839 ft 476 kts 14°
2026-04-15 08:41 24.24081 74.16581 36835 ft 476 kts 14°
2026-04-15 08:41 24.30301 74.19092 36837 ft 476 kts 14°
2026-04-15 08:42 24.36515 74.21604 36837 ft 476 kts 14°
2026-04-15 08:42 24.42732 74.24119 36836 ft 476 kts 14°
2026-04-15 08:43 24.48967 74.26644 36833 ft 477 kts 14°
2026-04-15 08:43 24.55155 74.29152 36837 ft 477 kts 14°
2026-04-15 08:44 24.61383 74.31680 36825 ft 477 kts 14°
2026-04-15 08:44 24.67617 74.34213 36830 ft 477 kts 13°
2026-04-15 08:45 24.73854 74.36749 36821 ft 477 kts 13°
2026-04-15 08:45 24.80073 74.39281 36820 ft 477 kts 13°
2026-04-15 08:46 24.86299 74.41819 36818 ft 477 kts 13°
2026-04-15 08:46 24.92510 74.44353 36826 ft 478 kts 13°
2026-04-15 08:47 24.98738 74.46897 36821 ft 477 kts 13°
2026-04-15 08:47 25.04971 74.49446 36813 ft 478 kts 13°
2026-04-15 08:48 25.11203 74.51996 36811 ft 478 kts 13°
2026-04-15 08:48 25.17440 74.54559 36815 ft 478 kts 13°
2026-04-15 08:49 25.23641 74.57112 36809 ft 478 kts 13°
2026-04-15 08:49 25.29873 74.59680 36812 ft 478 kts 13°
2026-04-15 08:50 25.36105 74.62252 36813 ft 478 kts 13°
2026-04-15 08:50 25.42349 74.64830 36813 ft 478 kts 13°
2026-04-15 08:51 25.48574 74.67404 36808 ft 478 kts 13°
2026-04-15 08:51 25.54807 74.69985 36813 ft 478 kts 13°
2026-04-15 08:52 25.61031 74.72564 36812 ft 478 kts 13°
2026-04-15 08:52 25.67223 74.75133 36813 ft 478 kts 13°
2026-04-15 08:53 25.73451 74.77719 36817 ft 477 kts 13°
2026-04-15 08:53 25.79675 74.80307 36812 ft 477 kts 13°
2026-04-15 08:54 25.85903 74.82900 36815 ft 477 kts 13°
2026-04-15 08:54 25.92124 74.85492 36815 ft 477 kts 13°
2026-04-15 08:55 25.98303 74.88070 36817 ft 477 kts 13°
2026-04-15 08:55 26.04529 74.90670 36820 ft 477 kts 13°
2026-04-15 08:56 26.10748 74.93270 36817 ft 477 kts 13°
2026-04-15 08:56 26.16955 74.95867 36819 ft 476 kts 12°
2026-04-15 08:57 26.23162 74.98459 36820 ft 476 kts 12°
2026-04-15 08:57 26.29362 75.01051 36817 ft 476 kts 12°
2026-04-15 08:58 26.35567 75.03648 36819 ft 476 kts 12°
2026-04-15 08:58 26.44826 75.07526 36823 ft 476 kts 12°
2026-04-15 08:59 26.51022 75.10119 36826 ft 475 kts 12°
2026-04-15 08:59 26.57222 75.12717 36826 ft 475 kts 12°
2026-04-15 09:00 26.63421 75.15317 36825 ft 475 kts 12°
2026-04-15 09:00 26.69622 75.17920 36820 ft 475 kts 12°
2026-04-15 09:01 26.75812 75.20520 36819 ft 475 kts 12°
2026-04-15 09:01 26.81965 75.23108 36815 ft 475 kts 12°
2026-04-15 09:02 26.88159 75.25716 36810 ft 475 kts 12°
2026-04-15 09:02 26.94340 75.28322 36807 ft 475 kts 12°
2026-04-15 09:03 27.00526 75.30933 36806 ft 474 kts 12°
2026-04-15 09:03 27.06709 75.33545 36803 ft 473 kts 11°
2026-04-15 09:04 27.12768 75.36108 36801 ft 464 kts 11°
2026-04-15 09:04 27.18805 75.38664 36801 ft 463 kts 11°
2026-04-15 09:05 27.21856 75.39594 36777 ft 444 kts 355°
2026-04-15 09:05 27.24895 75.39740 36819 ft 435 kts 351°
2026-04-15 09:05 27.30956 75.39856 36792 ft 435 kts 350°
2026-04-15 09:06 27.37009 75.39883 36802 ft 435 kts 349°
2026-04-15 09:06 27.43061 75.39888 36796 ft 434 kts 349°
2026-04-15 09:07 27.49109 75.39889 36806 ft 434 kts 349°
2026-04-15 09:07 27.55113 75.39889 36794 ft 434 kts 349°
2026-04-15 09:08 27.61162 75.39889 36799 ft 434 kts 349°
2026-04-15 09:08 27.67208 75.39889 36842 ft 436 kts 349°
2026-04-15 09:09 27.73273 75.39889 36776 ft 433 kts 349°
2026-04-15 09:09 27.79298 75.39889 36796 ft 433 kts 349°
2026-04-15 09:10 27.85288 75.39889 36789 ft 433 kts 349°
2026-04-15 09:10 27.91356 75.39889 36788 ft 433 kts 349°
2026-04-15 09:11 27.97336 75.39889 36785 ft 433 kts 349°
2026-04-15 09:11 28.03355 75.39889 36782 ft 432 kts 349°
2026-04-15 09:12 28.09382 75.39889 36785 ft 432 kts 349°
2026-04-15 09:12 28.15399 75.39889 36779 ft 432 kts 349°
2026-04-15 09:13 28.21412 75.39889 36779 ft 432 kts 349°
2026-04-15 09:13 28.27429 75.39889 36776 ft 432 kts 348°
2026-04-15 09:14 28.32423 75.39889 36771 ft 432 kts 348°
2026-04-15 09:14 28.38432 75.39889 36773 ft 432 kts 348°
2026-04-15 09:15 28.44429 75.39889 36769 ft 431 kts 348°
2026-04-15 09:15 28.50440 75.39889 36765 ft 431 kts 348°
2026-04-15 09:16 28.56443 75.39889 36763 ft 431 kts 348°
2026-04-15 09:16 28.62400 75.39889 36764 ft 431 kts 348°
2026-04-15 09:17 28.68402 75.39889 36761 ft 431 kts 348°
2026-04-15 09:17 28.74398 75.39889 36759 ft 431 kts 348°
2026-04-15 09:18 28.80401 75.39889 36760 ft 430 kts 348°
2026-04-15 09:18 28.86394 75.39889 36756 ft 430 kts 348°
2026-04-15 09:19 28.92382 75.39889 36754 ft 430 kts 348°
2026-04-15 09:19 28.98364 75.39889 36750 ft 430 kts 348°
2026-04-15 09:20 29.04308 75.39889 36751 ft 430 kts 348°
2026-04-15 09:20 29.10296 75.39889 36747 ft 430 kts 348°
2026-04-15 09:21 29.16286 75.39889 36747 ft 430 kts 348°
2026-04-15 09:21 29.22277 75.39889 36742 ft 430 kts 348°
2026-04-15 09:22 29.28262 75.39889 36740 ft 430 kts 348°
2026-04-15 09:22 29.34200 75.39665 36733 ft 416 kts 339°
2026-04-15 09:23 29.39944 75.38756 36736 ft 418 kts 340°
2026-04-15 09:23 29.45704 75.37834 36735 ft 417 kts 340°
2026-04-15 09:24 29.51427 75.36913 36735 ft 418 kts 340°
2026-04-15 09:24 29.57182 75.35985 36732 ft 418 kts 340°
2026-04-15 09:25 29.62944 75.35056 36731 ft 418 kts 340°
2026-04-15 09:25 29.68710 75.34124 36733 ft 418 kts 340°
2026-04-15 09:26 29.74479 75.33191 36728 ft 418 kts 340°
2026-04-15 09:26 29.80197 75.32265 36726 ft 418 kts 340°
2026-04-15 09:27 29.85964 75.31331 36729 ft 418 kts 340°
2026-04-15 09:27 29.91735 75.30394 36729 ft 419 kts 340°
2026-04-15 09:28 29.97516 75.29455 36729 ft 419 kts 340°
2026-04-15 09:28 30.03299 75.28514 36733 ft 419 kts 340°
2026-04-15 09:29 30.09069 75.27574 36724 ft 419 kts 340°
2026-04-15 09:29 30.14854 75.26631 36728 ft 419 kts 340°
2026-04-15 09:30 30.20604 75.25692 36730 ft 420 kts 341°
2026-04-15 09:30 30.26391 75.24746 36730 ft 420 kts 341°
2026-04-15 09:31 30.32187 75.23798 36732 ft 420 kts 341°
2026-04-15 09:31 30.37988 75.22848 36731 ft 420 kts 341°
2026-04-15 09:32 30.43784 75.21897 36733 ft 421 kts 341°
2026-04-15 09:32 30.49587 75.20944 36735 ft 421 kts 341°
2026-04-15 09:33 30.55387 75.19990 36735 ft 421 kts 341°
2026-04-15 09:33 30.61195 75.19034 36737 ft 422 kts 341°
2026-04-15 09:34 30.66972 75.18082 36737 ft 422 kts 341°
2026-04-15 09:34 30.72826 75.17116 36739 ft 422 kts 342°
2026-04-15 09:35 30.78647 75.16200 36736 ft 428 kts 347°
2026-04-15 09:35 30.81635 75.16458 36734 ft 446 kts
2026-04-15 09:35 30.84668 75.17352 36741 ft 452 kts
2026-04-15 09:36 30.90776 75.19249 36742 ft 454 kts
2026-04-15 09:36 30.96876 75.21223 36744 ft 454 kts
2026-04-15 09:37 31.02964 75.23210 36742 ft 454 kts
2026-04-15 09:37 31.09044 75.25197 36746 ft 453 kts
2026-04-15 09:38 31.15121 75.27187 36747 ft 453 kts
2026-04-15 09:38 31.21189 75.29176 36741 ft 453 kts
2026-04-15 09:39 31.27252 75.31165 36748 ft 452 kts
2026-04-15 09:39 31.33274 75.33143 36759 ft 452 kts
2026-04-15 09:40 31.39324 75.35133 36748 ft 451 kts
2026-04-15 09:40 31.45369 75.37124 36754 ft 451 kts
2026-04-15 09:41 31.51408 75.39116 36750 ft 451 kts
2026-04-15 09:41 31.57458 75.41113 36749 ft 451 kts
2026-04-15 09:42 31.63494 75.43109 36752 ft 451 kts
2026-04-15 09:42 31.69531 75.45109 36753 ft 450 kts
2026-04-15 09:43 31.75562 75.47109 36749 ft 450 kts
2026-04-15 09:43 31.81598 75.49112 36756 ft 450 kts
2026-04-15 09:44 31.87604 75.51109 36753 ft 451 kts
2026-04-15 09:44 31.93647 75.53124 36754 ft 451 kts
2026-04-15 09:45 31.99667 75.55135 36756 ft 443 kts
2026-04-15 09:45 32.02587 75.56113 36776 ft 427 kts
2026-04-15 09:45 32.05396 75.57052 36777 ft 415 kts
2026-04-15 09:46 32.11049 75.58939 36165 ft 434 kts
2026-04-15 09:46 32.13955 75.59916 35612 ft 433 kts
2026-04-15 09:46 32.16836 75.60883 35191 ft 429 kts
2026-04-15 09:47 32.19699 75.61844 34730 ft 426 kts
2026-04-15 09:47 32.22560 75.62637 34234 ft 416 kts 358°
2026-04-15 09:47 32.25375 75.62507 33770 ft 397 kts 341°
2026-04-15 09:47 32.28049 75.61825 33395 ft 390 kts 340°
2026-04-15 09:48 32.30677 75.61100 32959 ft 386 kts 339°
2026-04-15 09:48 32.33270 75.60332 32517 ft 382 kts 339°
2026-04-15 09:48 32.35802 75.59558 32087 ft 379 kts 339°
2026-04-15 09:48 32.38344 75.58765 31659 ft 376 kts 338°
2026-04-15 09:49 32.40867 75.57969 31242 ft 374 kts 338°
2026-04-15 09:49 32.43375 75.57174 30826 ft 371 kts 338°
2026-04-15 09:49 32.45868 75.56381 30426 ft 369 kts 338°
2026-04-15 09:49 32.48341 75.55594 30016 ft 367 kts 338°
2026-04-15 09:50 32.50807 75.54809 29576 ft 366 kts 338°
2026-04-15 09:50 32.53256 75.54029 29141 ft 363 kts 338°
2026-04-15 09:50 32.55687 75.53254 28749 ft 360 kts 339°
2026-04-15 09:50 32.58096 75.52485 28373 ft 356 kts 339°
2026-04-15 09:51 32.60483 75.51723 28005 ft 353 kts 339°
2026-04-15 09:51 32.62820 75.50977 27635 ft 350 kts 339°
2026-04-15 09:51 32.65168 75.50226 27281 ft 348 kts 339°
2026-04-15 09:51 32.67497 75.49481 26918 ft 346 kts 339°
2026-04-15 09:52 32.69823 75.48737 26557 ft 348 kts 340°
2026-04-15 09:52 32.72174 75.47985 26185 ft 352 kts 340°
2026-04-15 09:52 32.74558 75.47229 25749 ft 356 kts 341°
2026-04-15 09:52 32.76947 75.46477 25387 ft 354 kts 341°
2026-04-15 09:53 32.79328 75.45725 25050 ft 352 kts 341°
2026-04-15 09:53 32.81687 75.44980 24715 ft 350 kts 341°
2026-04-15 09:53 32.84043 75.44235 24359 ft 350 kts 342°
2026-04-15 09:53 32.86389 75.43492 24006 ft 349 kts 342°
2026-04-15 09:54 32.88741 75.42748 23658 ft 349 kts 342°
2026-04-15 09:54 32.91093 75.42003 23271 ft 349 kts 342°
2026-04-15 09:54 32.93432 75.41261 22875 ft 347 kts 342°
2026-04-15 09:54 32.95761 75.40522 22522 ft 345 kts 342°
2026-04-15 09:55 32.98077 75.39787 22177 ft 343 kts 342°
2026-04-15 09:55 33.00378 75.39056 21826 ft 342 kts 343°
2026-04-15 09:55 33.02639 75.38338 21497 ft 340 kts 343°
2026-04-15 09:55 33.04951 75.37603 21152 ft 338 kts 343°
2026-04-15 09:56 33.07190 75.36892 20795 ft 336 kts 343°
2026-04-15 09:56 33.09445 75.36174 20486 ft 334 kts 343°
2026-04-15 09:56 33.13928 75.34746 19813 ft 333 kts 343°
2026-04-15 09:57 33.16160 75.34035 19479 ft 331 kts 343°
2026-04-15 09:57 33.18385 75.33326 19143 ft 330 kts 343°
2026-04-15 09:57 33.20595 75.32621 18826 ft 329 kts 344°
2026-04-15 09:57 33.22804 75.31917 18457 ft 328 kts 344°
2026-04-15 09:58 33.25018 75.31208 18049 ft 329 kts 344°
2026-04-15 09:58 33.27230 75.30501 17649 ft 328 kts 345°
2026-04-15 09:58 33.29425 75.29800 17299 ft 325 kts 345°
2026-04-15 09:58 33.31606 75.29102 16970 ft 323 kts 345°
2026-04-15 09:59 33.33775 75.28408 16640 ft 321 kts 345°
2026-04-15 09:59 33.35926 75.27719 16314 ft 319 kts 345°
2026-04-15 09:59 33.38064 75.27034 15995 ft 317 kts 345°
2026-04-15 09:59 33.40195 75.26351 15676 ft 316 kts 344°
2026-04-15 10:00 33.41599 75.25901 15459 ft 314 kts 344°
2026-04-15 10:00 33.43707 75.25225 15137 ft 313 kts 344°
2026-04-15 10:00 33.46524 75.24321 14711 ft 313 kts 344°
2026-04-15 10:00 33.47910 75.23877 14499 ft 311 kts 344°
2026-04-15 10:01 33.49958 75.23058 14165 ft 310 kts 330°
2026-04-15 10:01 33.51700 75.21550 13837 ft 308 kts 322°
2026-04-15 10:01 33.53395 75.19994 13534 ft 306 kts 322°
2026-04-15 10:01 33.55074 75.18447 13214 ft 304 kts 322°
2026-04-15 10:02 33.56740 75.16905 12899 ft 302 kts 322°
2026-04-15 10:02 33.58939 75.14864 12472 ft 300 kts 322°
2026-04-15 10:02 33.60047 75.13833 12265 ft 297 kts 322°
2026-04-15 10:02 33.61661 75.12332 11965 ft 290 kts 322°
2026-04-15 10:03 33.63234 75.10867 11653 ft 281 kts 321°
2026-04-15 10:03 33.64754 75.09452 11372 ft 272 kts 321°
2026-04-15 10:03 33.66206 75.08098 11083 ft 263 kts 321°
2026-04-15 10:03 33.67450 75.06939 10886 ft 254 kts 321°
2026-04-15 10:04 33.68834 75.05648 10640 ft 251 kts 321°
2026-04-15 10:04 33.70229 75.04406 10353 ft 249 kts 327°
2026-04-15 10:04 33.71634 75.03218 10079 ft 245 kts 320°
2026-04-15 10:04 33.72933 75.01934 9931 ft 238 kts 320°
2026-04-15 10:05 33.74211 75.00742 9812 ft 227 kts 328°
2026-04-15 10:05 33.75640 75.00088 9792 ft 215 kts 345°
2026-04-15 10:05 33.77088 74.99666 9690 ft 214 kts 346°
2026-04-15 10:05 33.78533 74.99256 9503 ft 212 kts 346°
2026-04-15 10:06 33.79936 74.98734 9318 ft 211 kts 332°
2026-04-15 10:06 33.81121 74.97715 9116 ft 209 kts 316°
2026-04-15 10:06 33.82152 74.96492 8950 ft 208 kts 314°
2026-04-15 10:06 33.83181 74.95271 8766 ft 208 kts 315°
2026-04-15 10:07 33.84226 74.94064 8637 ft 207 kts 315°
2026-04-15 10:07 33.85272 74.92858 8626 ft 208 kts 315°
2026-04-15 10:07 33.86320 74.91653 8528 ft 211 kts 315°
2026-04-15 10:07 33.87378 74.90437 8163 ft 212 kts 316°
2026-04-15 10:08 33.88429 74.89226 7861 ft 206 kts 316°
2026-04-15 10:08 33.89449 74.88052 7622 ft 199 kts 315°
2026-04-15 10:08 33.90431 74.86921 7405 ft 193 kts 315°
2026-04-15 10:08 33.91363 74.85849 7179 ft 177 kts 315°
2026-04-15 10:09 33.92212 74.84870 6984 ft 165 kts 315°
2026-04-15 10:09 33.93036 74.83921 6724 ft 163 kts 316°
2026-04-15 10:09 33.93856 74.82978 6479 ft 162 kts 316°
2026-04-15 10:09 33.94667 74.82040 6245 ft 161 kts 315°
2026-04-15 10:10 33.95480 74.81115 6014 ft 161 kts 317°
2026-04-15 10:10 33.96290 74.80195 5821 ft 160 kts 316°
2026-04-15 10:10 33.97085 74.79261 5630 ft 160 kts 316°
2026-04-15 10:10 33.97863 74.78357 5514 ft 143 kts 316°
2026-04-15 10:11 33.98423 74.77712 5512 ft 79 kts 316°
2026-04-15 10:11 33.98726 74.77365 5513 ft 53 kts 316°
2026-04-15 10:11 33.98987 74.77063 5509 ft 51 kts 316°
2026-04-15 10:11 33.99236 74.76776 5509 ft 48 kts 316°
2026-04-15 10:12 33.99467 74.76506 5512 ft 45 kts 316°
2026-04-15 10:12 33.99678 74.76260 5512 ft 39 kts 316°
2026-04-15 10:12 33.99841 74.76089 5509 ft 25 kts 333°
2026-04-15 10:12 33.99952 74.76057 5513 ft 5 kts
2026-04-15 10:13 33.99963 74.76059 5515 ft 0 kts
2026-04-15 10:13 33.99964 74.76059 5515 ft 1 kts 10°
2026-04-15 10:13 33.99984 74.76063 5518 ft 5 kts
2026-04-15 10:14 34.00024 74.76076 5523 ft 5 kts 34°
2026-04-15 10:14 34.00025 74.76145 5524 ft 13 kts 116°
2026-04-15 10:14 34.00014 74.76188 5522 ft 0 kts 63°
2026-04-15 10:15 34.00033 74.76198 5522 ft 6 kts 12°
2026-04-15 10:15 34.00077 74.76208 5524 ft 6 kts 12°
2026-04-15 10:15 34.00098 74.76214 5521 ft 0 kts 12°